Time,TemperatureF,DewpointF,PressureIn,WindDirection,WindDirectionDegrees,WindSpeedMPH,WindSpeedGustMPH,Humidity,HourlyPrecipIn,Conditions,Clouds,dailyrainin,SoftwareType,DateUTC
2013-06-29 00:03:00,67.1,50.9,-100.00,North,-999,0.0,0.0,56,0.00,,,-99.99,FreeWX-Wi 1.01,2013-06-29 04:03:00,
2013-06-29 00:13:00,67.1,50.9,-100.00,North,-999,0.0,0.0,56,0.00,,,-99.99,FreeWX-Wi 1.01,2013-06-29 04:13:00,
2013-06-29 00:23:00,67.3,51.4,-100.00,North,-999,0.0,0.0,57,0.00,,,-99.99,FreeWX-Wi 1.01,2013-06-29 04:23:00,
2013-06-29 00:33:00,67.3,51.4,-100.00,North,-999,0.0,0.0,57,0.00,,,-99.99,FreeWX-Wi 1.01,2013-06-29 04:33:00,
2013-06-29 00:43:00,67.3,51.4,-100.00,North,-999,0.0,0.0,57,0.00,,,-99.99,FreeWX-Wi 1.01,2013-06-29 04:43:00,
2013-06-29 00:53:00,67.3,51.4,-100.00,North,-999,0.0,0.0,57,0.00,,,-99.99,FreeWX-Wi 1.01,2013-06-29 04:53:00,
2013-06-29 01:03:00,67.5,51.6,-100.00,North,-999,0.0,0.0,57,0.00,,,-99.99,FreeWX-Wi 1.01,2013-06-29 05:03:00,
2013-06-29 01:13:00,67.5,51.6,-100.00,North,-999,0.0,0.0,57,0.00,,,-99.99,FreeWX-Wi 1.01,2013-06-29 05:13:00,
2013-06-29 01:23:00,67.5,52.2,-100.00,North,-999,0.0,0.0,58,0.00,,,-99.99,FreeWX-Wi 1.01,2013-06-29 05:23:00,
2013-06-29 01:34:00,67.5,52.2,-100.00,North,-999,0.0,0.0,58,0.00,,,-99.99,FreeWX-Wi 1.01,2013-06-29 05:34:00,
2013-06-29 01:44:00,67.5,52.2,-100.00,North,-999,0.0,0.0,58,0.00,,,-99.99,FreeWX-Wi 1.01,2013-06-29 05:44:00,
2013-06-29 01:54:00,67.6,52.3,-100.00,North,-999,0.0,0.0,58,0.00,,,-99.99,FreeWX-Wi 1.01,2013-06-29 05:54:00,
2013-06-29 02:04:00,67.6,52.7,-100.00,North,-999,0.0,0.0,59,0.00,,,-99.99,FreeWX-Wi 1.01,2013-06-29 06:04:00,
2013-06-29 02:14:00,67.6,52.7,-100.00,North,-999,0.0,0.0,59,0.00,,,-99.99,FreeWX-Wi 1.01,2013-06-29 06:14:00,
2013-06-29 02:24:00,67.6,52.7,-100.00,North,-999,0.0,0.0,59,0.00,,,-99.99,FreeWX-Wi 1.01,2013-06-29 06:24:00,
2013-06-29 02:34:00,67.6,52.7,-100.00,North,-999,0.0,0.0,59,0.00,,,-99.99,FreeWX-Wi 1.01,2013-06-29 06:34:00,
2013-06-29 02:44:00,67.6,53.2,-100.00,North,-999,0.0,0.0,60,0.00,,,-99.99,FreeWX-Wi 1.01,2013-06-29 06:44:00,
2013-06-29 02:54:00,67.6,53.2,-100.00,North,-999,0.0,0.0,60,0.00,,,-99.99,FreeWX-Wi 1.01,2013-06-29 06:54:00,
2013-06-29 03:04:00,67.5,53.6,-100.00,North,-999,0.0,0.0,61,0.00,,,-99.99,FreeWX-Wi 1.01,2013-06-29 07:04:00,
2013-06-29 03:14:00,67.5,53.6,-100.00,North,-999,0.0,0.0,61,0.00,,,-99.99,FreeWX-Wi 1.01,2013-06-29 07:14:00,
2013-06-29 03:24:00,67.5,54.0,-100.00,North,-999,0.0,0.0,62,0.00,,,-99.99,FreeWX-Wi 1.01,2013-06-29 07:24:00,
2013-06-29 03:34:00,67.5,54.0,-100.00,North,-999,0.0,0.0,62,0.00,,,-99.99,FreeWX-Wi 1.01,2013-06-29 07:34:00,
2013-06-29 03:44:00,67.5,54.5,-100.00,North,-999,0.0,0.0,63,0.00,,,-99.99,FreeWX-Wi 1.01,2013-06-29 07:44:00,
2013-06-29 03:54:00,67.3,54.3,-100.00,North,-999,0.0,0.0,63,0.00,,,-99.99,FreeWX-Wi 1.01,2013-06-29 07:54:00,
2013-06-29 04:04:00,67.3,54.3,-100.00,North,-999,0.0,0.0,63,0.00,,,-99.99,FreeWX-Wi 1.01,2013-06-29 08:04:00,
2013-06-29 04:14:00,67.3,54.7,-100.00,North,-999,0.0,0.0,64,0.00,,,-99.99,FreeWX-Wi 1.01,2013-06-29 08:14:00,
2013-06-29 04:24:00,67.3,54.7,-100.00,North,-999,0.0,0.0,64,0.00,,,-99.99,FreeWX-Wi 1.01,2013-06-29 08:24:00,
2013-06-29 04:34:00,67.3,54.7,-100.00,North,-999,0.0,0.0,64,0.00,,,-99.99,FreeWX-Wi 1.01,2013-06-29 08:34:00,
2013-06-29 04:44:00,67.3,54.7,-100.00,North,-999,0.0,0.0,64,0.00,,,-99.99,FreeWX-Wi 1.01,2013-06-29 08:44:00,
2013-06-29 04:54:00,67.3,54.7,-100.00,North,-999,0.0,0.0,64,0.00,,,-99.99,FreeWX-Wi 1.01,2013-06-29 08:54:00,
2013-06-29 05:04:00,67.1,54.5,-100.00,North,-999,0.0,0.0,64,0.00,,,-99.99,FreeWX-Wi 1.01,2013-06-29 09:04:00,
2013-06-29 05:14:00,67.1,54.5,-100.00,North,-999,0.0,0.0,64,0.00,,,-99.99,FreeWX-Wi 1.01,2013-06-29 09:14:00,
2013-06-29 05:24:00,67.1,54.5,-100.00,North,-999,0.0,0.0,64,0.00,,,-99.99,FreeWX-Wi 1.01,2013-06-29 09:24:00,
2013-06-29 05:34:00,67.3,54.7,-100.00,North,-999,0.0,0.0,64,0.00,,,-99.99,FreeWX-Wi 1.01,2013-06-29 09:34:00,
2013-06-29 05:44:00,67.3,54.7,-100.00,North,-999,0.0,0.0,64,0.00,,,-99.99,FreeWX-Wi 1.01,2013-06-29 09:44:00,
2013-06-29 05:54:00,67.3,54.7,-100.00,North,-999,0.0,0.0,64,0.00,,,-99.99,FreeWX-Wi 1.01,2013-06-29 09:54:00,
2013-06-29 06:04:00,67.3,54.7,-100.00,North,-999,0.0,0.0,64,0.00,,,-99.99,FreeWX-Wi 1.01,2013-06-29 10:04:00,
2013-06-29 06:14:00,67.3,54.7,-100.00,North,-999,0.0,0.0,64,0.00,,,-99.99,FreeWX-Wi 1.01,2013-06-29 10:14:00,
2013-06-29 06:24:00,67.5,54.9,-100.00,North,-999,0.0,0.0,64,0.00,,,-99.99,FreeWX-Wi 1.01,2013-06-29 10:24:00,
2013-06-29 06:34:00,67.5,54.9,-100.00,North,-999,0.0,0.0,64,0.00,,,-99.99,FreeWX-Wi 1.01,2013-06-29 10:34:00,
2013-06-29 06:44:00,67.3,54.7,-100.00,North,-999,0.0,0.0,64,0.00,,,-99.99,FreeWX-Wi 1.01,2013-06-29 10:44:00,
2013-06-29 06:54:00,67.5,55.2,-100.00,North,-999,0.0,0.0,65,0.00,,,-99.99,FreeWX-Wi 1.01,2013-06-29 10:54:00,
2013-06-29 07:04:00,67.5,55.2,-100.00,North,-999,0.0,0.0,65,0.00,,,-99.99,FreeWX-Wi 1.01,2013-06-29 11:04:00,
2013-06-29 07:14:00,67.6,55.9,-100.00,North,-999,0.0,0.0,66,0.00,,,-99.99,FreeWX-Wi 1.01,2013-06-29 11:14:00,
2013-06-29 07:24:00,67.8,56.5,-100.00,North,-999,0.0,0.0,67,0.00,,,-99.99,FreeWX-Wi 1.01,2013-06-29 11:24:00,
2013-06-29 07:34:00,68.4,56.5,-100.00,North,-999,0.0,0.0,66,0.00,,,-99.99,FreeWX-Wi 1.01,2013-06-29 11:34:00,
2013-06-29 07:44:00,68.7,56.8,-100.00,North,-999,0.0,0.0,66,0.00,,,-99.99,FreeWX-Wi 1.01,2013-06-29 11:44:00,
2013-06-29 07:54:00,69.1,56.3,-100.00,North,-999,0.0,0.0,64,0.00,,,-99.99,FreeWX-Wi 1.01,2013-06-29 11:54:00,
2013-06-29 08:04:00,69.6,55.9,-100.00,North,-999,0.0,0.0,62,0.00,,,-99.99,FreeWX-Wi 1.01,2013-06-29 12:04:00,
2013-06-29 08:14:00,69.8,55.2,-100.00,North,-999,0.0,0.0,60,0.00,,,-99.99,FreeWX-Wi 1.01,2013-06-29 12:14:00,
2013-06-29 08:24:00,70.2,54.7,-100.00,North,-999,0.0,0.0,58,0.00,,,-99.99,FreeWX-Wi 1.01,2013-06-29 12:24:00,
2013-06-29 08:34:00,70.3,54.3,-100.00,North,-999,0.0,0.0,57,0.00,,,-99.99,FreeWX-Wi 1.01,2013-06-29 12:34:00,
2013-06-29 08:44:00,70.9,54.3,-100.00,North,-999,0.0,0.0,56,0.00,,,-99.99,FreeWX-Wi 1.01,2013-06-29 12:44:00,
2013-06-29 08:54:00,71.1,54.1,-100.00,North,-999,0.0,0.0,55,0.00,,,-99.99,FreeWX-Wi 1.01,2013-06-29 12:54:00,
2013-06-29 09:04:00,72.0,54.0,-100.00,North,-999,0.0,0.0,53,0.00,,,-99.99,FreeWX-Wi 1.01,2013-06-29 13:04:00,
2013-06-29 09:14:00,72.0,52.9,-100.00,North,-999,0.0,0.0,51,0.00,,,-99.99,FreeWX-Wi 1.01,2013-06-29 13:14:00,
2013-06-29 09:24:00,72.0,52.3,-100.00,North,-999,0.0,0.0,50,0.00,,,-99.99,FreeWX-Wi 1.01,2013-06-29 13:24:00,
2013-06-29 09:34:00,72.0,52.3,-100.00,North,-999,0.0,0.0,50,0.00,,,-99.99,FreeWX-Wi 1.01,2013-06-29 13:34:00,
2013-06-29 09:44:00,72.0,51.8,-100.00,North,-999,0.0,0.0,49,0.00,,,-99.99,FreeWX-Wi 1.01,2013-06-29 13:44:00,
2013-06-29 09:54:00,72.0,51.8,-100.00,North,-999,0.0,0.0,49,0.00,,,-99.99,FreeWX-Wi 1.01,2013-06-29 13:54:00,
2013-06-29 10:04:00,72.0,51.8,-100.00,North,-999,0.0,0.0,49,0.00,,,-99.99,FreeWX-Wi 1.01,2013-06-29 14:04:00,
2013-06-29 10:14:00,71.8,51.1,-100.00,North,-999,0.0,0.0,48,0.00,,,-99.99,FreeWX-Wi 1.01,2013-06-29 14:14:00,
2013-06-29 10:24:00,72.0,51.3,-100.00,North,-999,0.0,0.0,48,0.00,,,-99.99,FreeWX-Wi 1.01,2013-06-29 14:24:00,
2013-06-29 10:34:00,71.8,51.1,-100.00,North,-999,0.0,0.0,48,0.00,,,-99.99,FreeWX-Wi 1.01,2013-06-29 14:34:00,
2013-06-29 10:44:00,71.4,50.7,-100.00,North,-999,0.0,0.0,48,0.00,,,-99.99,FreeWX-Wi 1.01,2013-06-29 14:44:00,
2013-06-29 10:54:00,71.2,50.5,-100.00,North,-999,0.0,0.0,48,0.00,,,-99.99,FreeWX-Wi 1.01,2013-06-29 14:54:00,
2013-06-29 11:04:00,71.6,50.9,-100.00,North,-999,0.0,0.0,48,0.00,,,-99.99,FreeWX-Wi 1.01,2013-06-29 15:04:00,
2013-06-29 11:14:00,71.8,51.1,-100.00,North,-999,0.0,0.0,48,0.00,,,-99.99,FreeWX-Wi 1.01,2013-06-29 15:14:00,
2013-06-29 11:25:00,72.1,51.3,-100.00,North,-999,0.0,0.0,48,0.00,,,-99.99,FreeWX-Wi 1.01,2013-06-29 15:25:00,
2013-06-29 11:35:00,73.0,51.6,-100.00,North,-999,0.0,0.0,47,0.00,,,-99.99,FreeWX-Wi 1.01,2013-06-29 15:35:00,
2013-06-29 11:45:00,73.4,51.3,-100.00,North,-999,0.0,0.0,46,0.00,,,-99.99,FreeWX-Wi 1.01,2013-06-29 15:45:00,
2013-06-29 11:55:00,73.9,51.8,-100.00,North,-999,0.0,0.0,46,0.00,,,-99.99,FreeWX-Wi 1.01,2013-06-29 15:55:00,
2013-06-29 12:05:00,74.3,51.6,-100.00,North,-999,0.0,0.0,45,0.00,,,-99.99,FreeWX-Wi 1.01,2013-06-29 16:05:00,
2013-06-29 12:15:00,75.0,50.9,-100.00,North,-999,0.0,0.0,43,0.00,,,-99.99,FreeWX-Wi 1.01,2013-06-29 16:15:00,
2013-06-29 12:25:00,75.7,49.6,-100.00,North,-999,0.0,0.0,40,0.00,,,-99.99,FreeWX-Wi 1.01,2013-06-29 16:25:00,
2013-06-29 12:35:00,76.5,50.4,-100.00,North,-999,0.0,0.0,40,0.00,,,-99.99,FreeWX-Wi 1.01,2013-06-29 16:35:00,
2013-06-29 12:45:00,76.5,47.5,-100.00,North,-999,0.0,0.0,36,0.00,,,-99.99,FreeWX-Wi 1.01,2013-06-29 16:45:00,
2013-06-29 12:55:00,77.0,48.0,-100.00,North,-999,0.0,0.0,36,0.00,,,-99.99,FreeWX-Wi 1.01,2013-06-29 16:55:00,
2013-06-29 13:05:00,76.8,47.8,-100.00,North,-999,0.0,0.0,36,0.00,,,-99.99,FreeWX-Wi 1.01,2013-06-29 17:05:00,
2013-06-29 13:15:00,77.5,48.4,-100.00,North,-999,0.0,0.0,36,0.00,,,-99.99,FreeWX-Wi 1.01,2013-06-29 17:15:00,
2013-06-29 13:25:00,77.7,47.8,-100.00,North,-999,0.0,0.0,35,0.00,,,-99.99,FreeWX-Wi 1.01,2013-06-29 17:25:00,
2013-06-29 13:35:00,78.3,46.0,-100.00,North,-999,0.0,0.0,32,0.00,,,-99.99,FreeWX-Wi 1.01,2013-06-29 17:35:00,
2013-06-29 13:45:00,78.8,45.5,-100.00,North,-999,0.0,0.0,31,0.00,,,-99.99,FreeWX-Wi 1.01,2013-06-29 17:45:00,
2013-06-29 13:55:00,79.2,45.9,-100.00,North,-999,0.0,0.0,31,0.00,,,-99.99,FreeWX-Wi 1.01,2013-06-29 17:55:00,
2013-06-29 14:05:00,79.2,45.9,-100.00,North,-999,0.0,0.0,31,0.00,,,-99.99,FreeWX-Wi 1.01,2013-06-29 18:05:00,
2013-06-29 14:15:00,78.8,48.0,-100.00,North,-999,0.0,0.0,34,0.00,,,-99.99,FreeWX-Wi 1.01,2013-06-29 18:15:00,
2013-06-29 14:25:00,78.8,48.0,-100.00,North,-999,0.0,0.0,34,0.00,,,-99.99,FreeWX-Wi 1.01,2013-06-29 18:25:00,
2013-06-29 14:35:00,79.0,48.2,-100.00,North,-999,0.0,0.0,34,0.00,,,-99.99,FreeWX-Wi 1.01,2013-06-29 18:35:00,
2013-06-29 14:45:00,79.2,48.4,-100.00,North,-999,0.0,0.0,34,0.00,,,-99.99,FreeWX-Wi 1.01,2013-06-29 18:45:00,
2013-06-29 14:55:00,79.3,44.2,-100.00,North,-999,0.0,0.0,29,0.00,,,-99.99,FreeWX-Wi 1.01,2013-06-29 18:55:00,
2013-06-29 15:05:00,79.2,44.1,-100.00,North,-999,0.0,0.0,29,0.00,,,-99.99,FreeWX-Wi 1.01,2013-06-29 19:05:00,
2013-06-29 15:15:00,79.2,44.1,-100.00,North,-999,0.0,0.0,29,0.00,,,-99.99,FreeWX-Wi 1.01,2013-06-29 19:15:00,
2013-06-29 15:25:00,79.3,44.2,-100.00,North,-999,0.0,0.0,29,0.00,,,-99.99,FreeWX-Wi 1.01,2013-06-29 19:25:00,
2013-06-29 15:35:00,79.2,44.1,-100.00,North,-999,0.0,0.0,29,0.00,,,-99.99,FreeWX-Wi 1.01,2013-06-29 19:35:00,
2013-06-29 15:45:00,78.8,41.0,-100.00,North,-999,0.0,0.0,26,0.00,,,-99.99,FreeWX-Wi 1.01,2013-06-29 19:45:00,
2013-06-29 15:55:00,78.8,41.0,-100.00,North,-999,0.0,0.0,26,0.00,,,-99.99,FreeWX-Wi 1.01,2013-06-29 19:55:00,
2013-06-29 16:05:00,78.6,41.9,-100.00,North,-999,0.0,0.0,27,0.00,,,-99.99,FreeWX-Wi 1.01,2013-06-29 20:05:00,
2013-06-29 16:15:00,78.6,41.9,-100.00,North,-999,0.0,0.0,27,0.00,,,-99.99,FreeWX-Wi 1.01,2013-06-29 20:15:00,
2013-06-29 16:25:00,78.4,41.7,-100.00,North,-999,0.0,0.0,27,0.00,,,-99.99,FreeWX-Wi 1.01,2013-06-29 20:25:00,
2013-06-29 16:35:00,78.3,41.5,-100.00,North,-999,0.0,0.0,27,0.00,,,-99.99,FreeWX-Wi 1.01,2013-06-29 20:35:00,
2013-06-29 16:45:00,77.9,41.2,-100.00,North,-999,0.0,0.0,27,0.00,,,-99.99,FreeWX-Wi 1.01,2013-06-29 20:45:00,
2013-06-29 16:55:00,77.5,40.8,-100.00,North,-999,0.0,0.0,27,0.00,,,-99.99,FreeWX-Wi 1.01,2013-06-29 20:55:00,
2013-06-29 17:05:00,77.2,40.6,-100.00,North,-999,0.0,0.0,27,0.00,,,-99.99,FreeWX-Wi 1.01,2013-06-29 21:05:00,
2013-06-29 17:15:00,76.8,40.3,-100.00,North,-999,0.0,0.0,27,0.00,,,-99.99,FreeWX-Wi 1.01,2013-06-29 21:15:00,
2013-06-29 17:25:00,76.6,40.1,-100.00,North,-999,0.0,0.0,27,0.00,,,-99.99,FreeWX-Wi 1.01,2013-06-29 21:25:00,
2013-06-29 17:35:00,76.3,39.7,-100.00,North,-999,0.0,0.0,27,0.00,,,-99.99,FreeWX-Wi 1.01,2013-06-29 21:35:00,
2013-06-29 17:45:00,76.1,39.7,-100.00,North,-999,0.0,0.0,27,0.00,,,-99.99,FreeWX-Wi 1.01,2013-06-29 21:45:00,
2013-06-29 17:55:00,75.7,39.4,-100.00,North,-999,0.0,0.0,27,0.00,,,-99.99,FreeWX-Wi 1.01,2013-06-29 21:55:00,
2013-06-29 18:05:00,75.4,41.7,-100.00,North,-999,0.0,0.0,30,0.00,,,-99.99,FreeWX-Wi 1.01,2013-06-29 22:05:00,
2013-06-29 18:15:00,75.2,41.5,-100.00,North,-999,0.0,0.0,30,0.00,,,-99.99,FreeWX-Wi 1.01,2013-06-29 22:15:00,
2013-06-29 18:25:00,75.0,41.5,-100.00,North,-999,0.0,0.0,30,0.00,,,-99.99,FreeWX-Wi 1.01,2013-06-29 22:25:00,
2013-06-29 18:35:00,74.8,39.6,-100.00,North,-999,0.0,0.0,28,0.00,,,-99.99,FreeWX-Wi 1.01,2013-06-29 22:35:00,
2013-06-29 18:45:00,74.5,41.0,-100.00,North,-999,0.0,0.0,30,0.00,,,-99.99,FreeWX-Wi 1.01,2013-06-29 22:45:00,
2013-06-29 18:55:00,74.3,40.8,-100.00,North,-999,0.0,0.0,30,0.00,,,-99.99,FreeWX-Wi 1.01,2013-06-29 22:55:00,
2013-06-29 19:05:00,74.1,40.6,-100.00,North,-999,0.0,0.0,30,0.00,,,-99.99,FreeWX-Wi 1.01,2013-06-29 23:05:00,
2013-06-29 19:15:00,73.9,43.0,-100.00,North,-999,0.0,0.0,33,0.00,,,-99.99,FreeWX-Wi 1.01,2013-06-29 23:15:00,
2013-06-29 19:25:00,73.6,42.6,-100.00,North,-999,0.0,0.0,33,0.00,,,-99.99,FreeWX-Wi 1.01,2013-06-29 23:25:00,
2013-06-29 19:35:00,73.2,42.4,-100.00,North,-999,0.0,0.0,33,0.00,,,-99.99,FreeWX-Wi 1.01,2013-06-29 23:35:00,
2013-06-29 19:45:00,73.0,43.7,-100.00,North,-999,0.0,0.0,35,0.00,,,-99.99,FreeWX-Wi 1.01,2013-06-29 23:45:00,
2013-06-29 19:55:00,72.9,43.5,-100.00,North,-999,0.0,0.0,35,0.00,,,-99.99,FreeWX-Wi 1.01,2013-06-29 23:55:00,
2013-06-29 20:05:00,72.5,44.1,-100.00,North,-999,0.0,0.0,36,0.00,,,-99.99,FreeWX-Wi 1.01,2013-06-30 00:05:00,
2013-06-29 20:15:00,72.1,43.7,-100.00,North,-999,0.0,0.0,36,0.00,,,-99.99,FreeWX-Wi 1.01,2013-06-30 00:15:00,
2013-06-29 20:25:00,72.0,43.5,-100.00,North,-999,0.0,0.0,36,0.00,,,-99.99,FreeWX-Wi 1.01,2013-06-30 00:25:00,
2013-06-29 20:35:00,71.6,43.2,-100.00,North,-999,0.0,0.0,36,0.00,,,-99.99,FreeWX-Wi 1.01,2013-06-30 00:35:00,
2013-06-29 20:45:00,71.2,43.7,-100.00,North,-999,0.0,0.0,37,0.00,,,-99.99,FreeWX-Wi 1.01,2013-06-30 00:45:00,
2013-06-29 20:55:00,71.1,44.2,-100.00,North,-999,0.0,0.0,38,0.00,,,-99.99,FreeWX-Wi 1.01,2013-06-30 00:55:00,
2013-06-29 21:05:00,70.7,44.6,-100.00,North,-999,0.0,0.0,39,0.00,,,-99.99,FreeWX-Wi 1.01,2013-06-30 01:05:00,
2013-06-29 21:15:00,70.5,45.0,-100.00,North,-999,0.0,0.0,40,0.00,,,-99.99,FreeWX-Wi 1.01,2013-06-30 01:15:00,
2013-06-29 21:25:00,70.2,45.3,-100.00,North,-999,0.0,0.0,41,0.00,,,-99.99,FreeWX-Wi 1.01,2013-06-30 01:25:00,
2013-06-29 21:35:00,70.0,45.9,-100.00,North,-999,0.0,0.0,42,0.00,,,-99.99,FreeWX-Wi 1.01,2013-06-30 01:35:00,
2013-06-29 21:45:00,69.8,46.2,-100.00,North,-999,0.0,0.0,43,0.00,,,-99.99,FreeWX-Wi 1.01,2013-06-30 01:45:00,
2013-06-29 21:55:00,69.6,47.3,-100.00,North,-999,0.0,0.0,45,0.00,,,-99.99,FreeWX-Wi 1.01,2013-06-30 01:55:00,
2013-06-29 22:05:00,69.4,47.7,-100.00,North,-999,0.0,0.0,46,0.00,,,-99.99,FreeWX-Wi 1.01,2013-06-30 02:05:00,
2013-06-29 22:15:00,69.3,48.2,-100.00,North,-999,0.0,0.0,47,0.00,,,-99.99,FreeWX-Wi 1.01,2013-06-30 02:15:00,
2013-06-29 22:25:00,69.1,48.0,-100.00,North,-999,0.0,0.0,47,0.00,,,-99.99,FreeWX-Wi 1.01,2013-06-30 02:25:00,
2013-06-29 22:35:00,68.9,47.8,-100.00,North,-999,0.0,0.0,47,0.00,,,-99.99,FreeWX-Wi 1.01,2013-06-30 02:35:00,
2013-06-29 22:45:00,68.7,47.7,-100.00,North,-999,0.0,0.0,47,0.00,,,-99.99,FreeWX-Wi 1.01,2013-06-30 02:45:00,
2013-06-29 22:55:00,68.5,48.0,-100.00,North,-999,0.0,0.0,48,0.00,,,-99.99,FreeWX-Wi 1.01,2013-06-30 02:55:00,
2013-06-29 23:05:00,68.5,48.0,-100.00,North,-999,0.0,0.0,48,0.00,,,-99.99,FreeWX-Wi 1.01,2013-06-30 03:05:00,
2013-06-29 23:15:00,68.4,47.8,-100.00,North,-999,0.0,0.0,48,0.00,,,-99.99,FreeWX-Wi 1.01,2013-06-30 03:15:00,
2013-06-29 23:25:00,68.2,47.7,-100.00,North,-999,0.0,0.0,48,0.00,,,-99.99,FreeWX-Wi 1.01,2013-06-30 03:25:00,
2013-06-29 23:35:00,68.2,48.2,-100.00,North,-999,0.0,0.0,49,0.00,,,-99.99,FreeWX-Wi 1.01,2013-06-30 03:35:00,
2013-06-29 23:45:00,68.0,48.2,-100.00,North,-999,0.0,0.0,49,0.00,,,-99.99,FreeWX-Wi 1.01,2013-06-30 03:45:00,
2013-06-29 23:55:00,68.0,48.2,-100.00,North,-999,0.0,0.0,49,0.00,,,-99.99,FreeWX-Wi 1.01,2013-06-30 03:55:00,